THORAD AGENA D DEB, 4946

Orbit data source: Space-Track

THORAD AGENA D DEB, 4946 is space debris in SSO originally from a launch on Wed, 08 Apr 1970 UTC launched from the Air Force Western Test Range (AFWTR). Debris objects in space refer to the collection of defunct objects orbiting the Earth. Examples of debris include non-operational satellites, rocket bodies, and fragments generated from explosions, collisions, or faulty payload assembly.

Loading next visibility...
Identifier
4946, 1970-025GG
Orbit
SSO
Country
Flag of USUS
Related business
Manufacturer
Unknown
Mission
Spacecraft
Bus & Motor
Unknown
Mass
Unknown
Launch date (UTC)
1970-04-08 (56 years ago)
Launch vehicle
Unknown
Launch site
Air Force Western Test Range (AFWTR)
Object type
Payload
Rocket body
Debris
Shape & HBR
Unknown shape, 0.1 m
Radar Cross Section
Medium (>0.1 m² and <1 m²)

Expand to show TLE details & history
Last TLE update: 1 day ago

TLE from 1 day ago
0 THORAD AGENA D DEB
1 04946U 70025GG  26149.29529493  .00001017  00000-0  95963-3 0  9996
2 04946  99.6702 274.0303 0013746  29.4120  37.8256 13.83797291800397
Epoch: 2026-05-29T07:05Z
TLE epoch observation values (Epoch: 2026-05-29T07:05:13.481Z)
Latitude
65.54522°
Longitude
-100.98792°
Altitude
953.741 km
Speed
7.385 km/s
True Right ascension
16h 48m 35s
True Declination
65° 25' 08"
Sunlit
Object was in daylight at epoch
Visualization orbit readout
Latitude
Unknown
Longitude
Unknown
Altitude
Unknown
Speed
Unknown
Apparent Right ascension
Unknown
Apparent Declination
Unknown
Sunlit
N/A
Visualization observer readout
Local Sidereal Time
18:00:45
Azimuth
Unknown
Elevation
Unknown
Doppler factor
Unknown
Orbital elements
Apogee altitude
957.774 km
Perigee altitude
937.634 km
Semi-major axis
7,325.841 km
Eccentricity
0.00137
Inclination
99.6702°
RAAN
274.0303°
Arg. of periapsis
29.412°
True anomaly
37.92233°
Mean anomaly
37.8256°
Eccentric anomaly
37.87395°
Mean motion
3.46144 °/min
Orbital period
104 mins
BSTAR
0.00095963
Loading maneuver chart data...
Computing Atmospheric mass density...

Documentation

Showing up to 5 results
|